• In Belarus
  • List of Countries
  • For 7 days
  • Water Temperature
  • Satellite Maps
  • Weather Map
  • Weather Widgets
  • user-avatar
    Login

    Hourly Weather Veliko Tarnovo

    Today, 23 November, Thursday

    Time Temperature Precipitation Wind Pressure Humidity
    00:00 +8°C° 0 mm 2 mps 739 mmHg 67%
    01:00 +7°C° 0 mm 2 mps 740 mmHg 68%
    02:00 +7°C° 0 mm 2 mps 740 mmHg 69%
    03:00 +8°C° 0 mm 1 mps 740 mmHg 70%
    04:00 +8°C° 0 mm 1 mps 740 mmHg 71%
    05:00 +7°C° 0 mm 1 mps 740 mmHg 72%
    06:00 +7°C° 0 mm 1 mps 741 mmHg 72%
    07:00 +7°C° 0 mm 1 mps 741 mmHg 73%
    08:00 +7°C° 0 mm 1 mps 741 mmHg 74%
    09:00 +9°C° 0 mm 1 mps 742 mmHg 68%
    10:00 +10°C° 0 mm 1 mps 742 mmHg 63%
    11:00 +12°C° 0 mm 1 mps 742 mmHg 58%
    12:00 +13°C° 0 mm 1 mps 742 mmHg 56%
    13:00 +13°C° 0 mm 1 mps 742 mmHg 55%
    14:00 +14°C° 0 mm 1 mps 742 mmHg 54%
    15:00 +13°C° 0 mm 1 mps 742 mmHg 59%
    16:00 +12°C° 0 mm 1 mps 742 mmHg 64%
    17:00 +9°C° 0 mm 0 mps 742 mmHg 69%
    18:00 +9°C° 0 mm 0 mps 742 mmHg 71%
    19:00 +10°C° 0 mm 1 mps 742 mmHg 72%
    20:00 +9°C° 0 mm 1 mps 742 mmHg 74%
    21:00 +9°C° 0 mm 1 mps 742 mmHg 75%
    22:00 +9°C° 0 mm 1 mps 742 mmHg 76%
    23:00 +8°C° 0 mm 1 mps 743 mmHg 76%

    Tomorrow, 24 November, Friday

    Time Temperature Precipitation Wind Pressure Humidity
    00:00 +8°C° 0 mm 1 mps 743 mmHg 77%
    01:00 +8°C° 0 mm 1 mps 743 mmHg 77%
    02:00 +8°C° 0 mm 1 mps 743 mmHg 77%
    03:00 +8°C° 0 mm 1 mps 742 mmHg 77%
    04:00 +7°C° 0 mm 1 mps 742 mmHg 77%
    05:00 +7°C° 0 mm 1 mps 742 mmHg 77%
    06:00 +7°C° 0 mm 1 mps 742 mmHg 77%
    07:00 +7°C° 0 mm 1 mps 742 mmHg 76%
    08:00 +6°C° 0 mm 0 mps 742 mmHg 76%
    09:00 +8°C° 0 mm 0 mps 743 mmHg 70%
    10:00 +10°C° 0 mm 0 mps 743 mmHg 63%
    11:00 +11°C° 0 mm 0 mps 743 mmHg 57%
    12:00 +12°C° 0 mm 0 mps 743 mmHg 55%
    13:00 +14°C° 0 mm 1 mps 742 mmHg 53%
    14:00 +14°C° 0 mm 1 mps 742 mmHg 51%
    15:00 +13°C° 0 mm 1 mps 742 mmHg 57%
    16:00 +12°C° 0 mm 1 mps 742 mmHg 63%
    17:00 +9°C° 0 mm 0 mps 742 mmHg 68%
    18:00 +10°C° 0 mm 1 mps 743 mmHg 70%
    19:00 +10°C° 0 mm 1 mps 743 mmHg 72%
    20:00 +9°C° 0 mm 1 mps 743 mmHg 73%
    21:00 +9°C° 0 mm 1 mps 743 mmHg 75%
    22:00 +9°C° 0 mm 1 mps 743 mmHg 76%
    23:00 +8°C° 0 mm 1 mps 744 mmHg 77%

    Day after tomorrow, 25 November, Saturday

    Time Temperature Precipitation Wind Pressure Humidity
    00:00 +8°C° 0 mm 1 mps 744 mmHg 78%
    01:00 +8°C° 0 mm 1 mps 744 mmHg 79%
    02:00 +8°C° 0 mm 1 mps 744 mmHg 80%
    03:00 +7°C° 0 mm 1 mps 744 mmHg 81%
    04:00 +7°C° 0 mm 1 mps 743 mmHg 82%
    05:00 +7°C° 0 mm 1 mps 743 mmHg 83%
    06:00 +7°C° 0 mm 1 mps 743 mmHg 83%
    07:00 +7°C° 0 mm 1 mps 744 mmHg 84%
    08:00 +7°C° 0 mm 1 mps 744 mmHg 85%
    09:00 +9°C° 0 mm 1 mps 744 mmHg 78%
    10:00 +10°C° 0 mm 1 mps 744 mmHg 72%
    11:00 +12°C° 0 mm 2 mps 744 mmHg 66%
    12:00 +13°C° 0 mm 2 mps 743 mmHg 63%
    13:00 +13°C° 0 mm 2 mps 743 mmHg 61%
    14:00 +14°C° 0 mm 2 mps 743 mmHg 58%
    15:00 +13°C° 0 mm 2 mps 742 mmHg 63%
    16:00 +12°C° 0 mm 2 mps 742 mmHg 68%
    17:00 +10°C° 0 mm 2 mps 742 mmHg 73%
    18:00 +9°C° 0 mm 2 mps 742 mmHg 76%
    19:00 +9°C° 0 mm 2 mps 742 mmHg 79%
    20:00 +8°C° 0 mm 2 mps 742 mmHg 82%
    21:00 +8°C° 0 mm 2 mps 742 mmHg 83%
    22:00 +7°C° 0 mm 2 mps 742 mmHg 84%
    23:00 +7°C° 0 mm 2 mps 742 mmHg 86%

    26 November, Sunday

    Time Temperature Precipitation Wind Pressure Humidity
    00:00 +7°C° 0 mm 2 mps 742 mmHg 86%
    01:00 +7°C° 0 mm 2 mps 741 mmHg 87%
    02:00 +7°C° 0 mm 1 mps 741 mmHg 87%
    03:00 +7°C° 0 mm 1 mps 741 mmHg 87%
    04:00 +7°C° 0 mm 1 mps 741 mmHg 88%
    05:00 +7°C° 0 mm 1 mps 740 mmHg 88%
    06:00 +7°C° 0 mm 1 mps 740 mmHg 87%
    07:00 +7°C° 0 mm 1 mps 740 mmHg 87%
    08:00 +7°C° 0 mm 1 mps 740 mmHg 87%
    09:00 +8°C° 0 mm 1 mps 740 mmHg 80%
    10:00 +10°C° 0 mm 1 mps 740 mmHg 73%
    11:00 +12°C° 0 mm 1 mps 740 mmHg 66%
    12:00 +12°C° 0 mm 1 mps 740 mmHg 62%
    13:00 +13°C° 0 mm 1 mps 739 mmHg 59%
    14:00 +14°C° 0 mm 1 mps 739 mmHg 56%
    15:00 +13°C° 0 mm 1 mps 738 mmHg 60%
    16:00 +12°C° 0 mm 1 mps 738 mmHg 65%
    17:00 +11°C° 0 mm 1 mps 738 mmHg 69%
    18:00 +10°C° 0 mm 1 mps 738 mmHg 71%
    19:00 +10°C° 0 mm 1 mps 738 mmHg 72%
    20:00 +10°C° 0 mm 1 mps 738 mmHg 73%
    21:00 +10°C° 0.1 mm 1 mps 738 mmHg 74%
    22:00 +10°C° 0.1 mm 1 mps 738 mmHg 75%
    23:00 +10°C° 0.1 mm 1 mps 737 mmHg 76%

    27 November, Monday

    Time Temperature Precipitation Wind Pressure Humidity
    00:00 +8°C° 0.2 mm 0 mps 737 mmHg 78%
    01:00 +8°C° 0.2 mm 0 mps 737 mmHg 80%
    02:00 +8°C° 0.2 mm 0 mps 736 mmHg 82%
    03:00 +8°C° 0.2 mm 0 mps 736 mmHg 84%
    04:00 +8°C° 0.2 mm 0 mps 736 mmHg 85%
    05:00 +8°C° 0.2 mm 0 mps 736 mmHg 87%
    06:00 +8°C° 0.3 mm 0 mps 736 mmHg 88%
    07:00 +8°C° 0.3 mm 1 mps 736 mmHg 89%
    08:00 +8°C° 0.3 mm 1 mps 736 mmHg 90%
    09:00 +7°C° 0.4 mm 2 mps 736 mmHg 87%
    10:00 +8°C° 0.4 mm 3 mps 736 mmHg 84%
    11:00 +7°C° 0.4 mm 4 mps 737 mmHg 81%
    12:00 +7°C° 0.3 mm 5 mps 736 mmHg 78%
    13:00 +7°C° 0.3 mm 5 mps 736 mmHg 76%
    14:00 +6°C° 0.3 mm 5 mps 736 mmHg 73%
    15:00 +6°C° 0.4 mm 5 mps 736 mmHg 72%
    16:00 +5°C° 0.4 mm 6 mps 737 mmHg 72%
    17:00 +4°C° 0.4 mm 6 mps 737 mmHg 71%
    18:00 +4°C° 0.3 mm 6 mps 737 mmHg 71%
    19:00 +3°C° 0.3 mm 6 mps 738 mmHg 70%
    20:00 +3°C° 0.3 mm 6 mps 738 mmHg 70%
    21:00 +3°C° 0.1 mm 6 mps 738 mmHg 71%
    22:00 +2°C° 0.1 mm 6 mps 738 mmHg 72%
    23:00 +2°C° 0.1 mm 6 mps 739 mmHg 73%

    28 November, Tuesday

    Time Temperature Precipitation Wind Pressure Humidity
    00:00 +1°C° 0.1 mm 5 mps 739 mmHg 73%
    01:00 +1°C° 0.1 mm 5 mps 739 mmHg 74%
    02:00 +1°C° 0.1 mm 5 mps 739 mmHg 74%
    03:00 +1°C° 0 mm 5 mps 739 mmHg 74%
    04:00 0°C° 0 mm 5 mps 739 mmHg 74%
    05:00 0°C° 0 mm 4 mps 740 mmHg 75%
    06:00 0°C° 0 mm 4 mps 740 mmHg 74%
    07:00 0°C° 0 mm 4 mps 740 mmHg 74%
    08:00 +1°C° 0 mm 3 mps 741 mmHg 74%
    09:00 0°C° 0 mm 4 mps 741 mmHg 70%
    10:00 +1°C° 0 mm 4 mps 741 mmHg 66%
    11:00 +3°C° 0 mm 4 mps 741 mmHg 61%
    12:00 +3°C° 0 mm 3 mps 741 mmHg 59%
    13:00 +4°C° 0 mm 3 mps 741 mmHg 58%
    14:00 +4°C° 0 mm 3 mps 740 mmHg 56%
    15:00 +5°C° 0 mm 2 mps 740 mmHg 59%
    16:00 +4°C° 0 mm 2 mps 741 mmHg 62%
    17:00 +4°C° 0 mm 1 mps 741 mmHg 66%
    18:00 +4°C° 0 mm 1 mps 741 mmHg 67%
    19:00 +3°C° 0 mm 1 mps 741 mmHg 68%
    20:00 +3°C° 0 mm 1 mps 741 mmHg 69%
    21:00 +3°C° 0 mm 1 mps 742 mmHg 69%
    22:00 +3°C° 0 mm 1 mps 742 mmHg 70%
    23:00 +2°C° 0 mm 1 mps 742 mmHg 70%
    Show more